Weather in Guney

Turkey     38°09′11″N   29°03′53″E
temp.,
°C
wind,
m/s
gust,
m/s
humid.,
%
clouds,
%
prec.,
mm/h
press.,
hPa
HPBL,
m
26 february, fri
fri2600:00+4ne33720 0.0 102978
03:00+3ne33750 0.0 102862
06:00+2ne22810 0.0 102822
09:00+4ne22710 0.0 102793
12:00+9ne22500 0.0 1025464
15:00+13e23360 0.0 1022684
18:00+14ese00430 0.0 102128
21:00+8nw12560 0.0 102222
27 february, sat
sat2700:00+6n12630 0.0 102222
03:00+4nne12660 0.0 102122
06:00+3ene12690 0.0 102022
09:00+7ene22590 0.0 102047
12:00+12ne11390 0.0 1018415
15:00+15nnw11280 0.0 1015782
18:00+15wnw23370 0.0 101581
21:00+9w23650 0.0 101622
28 february, sun
sun2800:00+7w12710 0.0 101722
03:00+6w22800 0.0 101722
06:00+4wnw22890 0.0 101722
09:00+7nw23810 0.0 1018108
12:00+12n44500 0.0 1017985
15:00+14nnw66410 0.0 10171807
18:00+11n665259 0.0 10171245
21:00+8n696448 0.0 1020441
1 march, mon
mon100:00+5nne8106582 0.0 1022699
03:00+4ne8105889 0.0 1023736
06:00+1nne6106963 0.0 1023375
09:00+2ne6106132 0.0 1024679
12:00+6ne88434 0.0 10231071
15:00+9ne89312 0.0 10211529
18:00+8ne79360 0.0 10211678
21:00+3ne711550 0.0 1024432
2 march, tue
tue200:00+1n25640 0.0 1025118
03:000nnw34740 0.0 102690
06:000n3772100 0.0 1025346
09:00+1n596296 0.0 1026831
12:00+6ne8104534 0.0 10251588
15:00+7nne10103962 0.0 10242047
18:00+5nne101143100 0.0 10241730
21:00+2nne7115967 0.0 1027517